| time (UTC) | temp F | wind direction | speed MPH | gust MPH | rain 1hr in | rain 24hr in | rain mn in | humidity % | barometer mb |
| 20260504021528 | 59 | 108 | 3.0 | 9.0 | 0.00 | 0.00 | 0.00 | 77 | 1014.2 |
| 20260504020027 | 59 | 97 | 5.0 | 12.0 | 0.00 | 0.00 | 0.00 | 75 | 1014.1 |
| 20260504014527 | 60 | 110 | 4.0 | 14.0 | 0.00 | 0.00 | 0.00 | 72 | 1014.0 |
| 20260504013025 | 60 | 82 | 8.0 | 14.0 | 0.00 | 0.00 | 0.00 | 73 | 1014.0 |
| 20260504011524 | 61 | 92 | 6.0 | 11.0 | 0.00 | 0.00 | 0.00 | 70 | 1014.1 |
| 20260504010023 | 61 | 97 | 9.0 | 14.0 | 0.00 | 0.00 | 0.00 | 70 | 1014.2 |
| 20260504004533 | 61 | 98 | 6.0 | 14.0 | 0.00 | 0.00 | 0.00 | 71 | 1014.0 |
| 20260504003021 | 60 | 110 | 11.0 | 15.0 | 0.00 | 0.00 | 0.00 | 70 | 1013.9 |
| 20260504001521 | 61 | 121 | 7.0 | 15.0 | 0.00 | 0.00 | 0.00 | 70 | 1013.9 |
| 20260504000021 | 62 | 105 | 8.0 | 15.0 | 0.00 | 0.00 | 0.00 | 70 | 1013.7 |
| 20260503234518 | 61 | 62 | 9.0 | 15.0 | 0.00 | 0.00 | 0.00 | 69 | 1013.7 |
| 20260503233020 | 62 | 99 | 10.0 | 15.0 | 0.00 | 0.00 | 0.00 | 68 | 1013.7 |
| 20260503231516 | 62 | 105 | 8.0 | 15.0 | 0.00 | 0.00 | 0.00 | 68 | 1013.7 |
| 20260503230015 | 62 | 84 | 8.0 | 18.0 | 0.00 | 0.00 | 0.00 | 66 | 1013.7 |
| 20260503224514 | 63 | 115 | 9.0 | 17.0 | 0.00 | 0.00 | 0.00 | 60 | 1013.7 |
| 20260503223014 | 62 | 71 | 7.0 | 16.0 | 0.00 | 0.00 | 0.00 | 63 | 1013.7 |
| 20260503221513 | 64 | 81 | 6.0 | 14.0 | 0.00 | 0.00 | 0.00 | 59 | 1013.8 |
| 20260503220012 | 63 | 46 | 6.0 | 13.0 | 0.00 | 0.00 | 0.00 | 60 | 1013.9 |
| 20260503214511 | 62 | 104 | 9.0 | 15.0 | 0.00 | 0.00 | 0.00 | 60 | 1013.9 |
| 20260503213017 | 63 | 55 | 6.0 | 12.0 | 0.00 | 0.00 | 0.00 | 57 | 1014.0 |
| 20260503211511 | 64 | 124 | 8.0 | 14.0 | 0.00 | 0.00 | 0.00 | 56 | 1013.9 |
| 20260503210008 | 63 | 121 | 9.0 | 15.0 | 0.00 | 0.00 | 0.00 | 60 | 1013.9 |
| 20260503204506 | 63 | 128 | 11.0 | 16.0 | 0.00 | 0.00 | 0.00 | 62 | 1013.9 |
| 20260503203010 | 62 | 115 | 8.0 | 15.0 | 0.00 | 0.00 | 0.00 | 65 | 1014.0 |
| 20260503201505 | 63 | 96 | 9.0 | 16.0 | 0.00 | 0.00 | 0.00 | 65 | 1014.1 |
| 20260503200008 | 62 | 77 | 7.0 | 19.0 | 0.00 | 0.00 | 0.00 | 67 | 1014.1 |
| 20260503194504 | 62 | 116 | 13.0 | 19.0 | 0.00 | 0.00 | 0.00 | 66 | 1014.2 |
| 20260503193002 | 62 | 81 | 7.0 | 16.0 | 0.00 | 0.00 | 0.00 | 66 | 1014.4 |
| 20260503191608 | 62 | 90 | 8.0 | 14.0 | 0.00 | 0.00 | 0.00 | 62 | 1014.4 |
| 20260503190106 | 61 | 100 | 7.0 | 14.0 | 0.00 | 0.00 | 0.00 | 65 | 1014.5 |
| 20260503184559 | 61 | 84 | 7.0 | 12.0 | 0.00 | 0.00 | 0.00 | 67 | 1014.6 |
| 20260503183115 | 61 | 76 | 4.0 | 12.0 | 0.00 | 0.00 | 0.00 | 68 | 1014.7 |
| 20260503181620 | 61 | 90 | 8.0 | 15.0 | 0.00 | 0.00 | 0.00 | 67 | 1014.8 |
| 20260503180059 | 61 | 111 | 5.0 | 9.0 | 0.00 | 0.00 | 0.00 | 67 | 1014.7 |
| 20260503174552 | 60 | 104 | 5.0 | 9.0 | 0.00 | 0.00 | 0.00 | 71 | 1014.7 |
| 20260503173056 | 60 | 222 | 0.0 | 3.0 | 0.00 | 0.00 | 0.00 | 75 | 1014.7 |
| 20260503171547 | 58 | 80 | 1.0 | 6.0 | 0.00 | 0.00 | 0.00 | 76 | 1014.7 |
| 20260503081558 | 54 | 74 | 0.0 | 1.0 | 0.00 | 0.00 | 0.00 | 86 | 1013.0 |
| 20260503080106 | 54 | 76 | 1.0 | 3.0 | 0.00 | 0.00 | 0.00 | 86 | 1013.1 |
| 20260503071604 | 54 | 86 | 1.0 | 3.0 | 0.00 | 0.00 | 0.00 | 89 | 1012.9 |
| 20260503070110 | 54 | 81 | 2.0 | 6.0 | 0.00 | 0.00 | 0.00 | 90 | 1012.8 |
| 20260503060113 | 55 | 44 | 3.0 | 7.0 | 0.00 | 0.00 | 0.00 | 90 | 1012.7 |
| 20260503054548 | 55 | 103 | 2.0 | 4.0 | 0.00 | 0.00 | 0.00 | 90 | 1012.5 |
| 20260503053049 | 55 | 73 | 3.0 | 10.0 | 0.00 | 0.00 | 0.00 | 90 | 1012.5 |
| 20260503051549 | 55 | 111 | 4.0 | 9.0 | 0.00 | 0.00 | 0.00 | 90 | 1012.3 |
| 20260503050046 | 55 | 110 | 1.0 | 8.0 | 0.00 | 0.00 | 0.00 | 89 | 1012.3 |
| 20260503044545 | 55 | 101 | 2.0 | 9.0 | 0.00 | 0.00 | 0.00 | 88 | 1012.4 |
| 20260503043045 | 55 | 90 | 2.0 | 7.0 | 0.00 | 0.00 | 0.00 | 88 | 1012.3 |
| 20260503041544 | 55 | 85 | 3.0 | 8.0 | 0.00 | 0.00 | 0.00 | 87 | 1012.2 |
| 20260503040043 | 56 | 107 | 4.0 | 7.0 | 0.00 | 0.00 | 0.00 | 86 | 1012.2 |
| 20260503034546 | 56 | 106 | 3.0 | 7.0 | 0.00 | 0.00 | 0.00 | 86 | 1012.2 |
| 20260503033048 | 56 | 129 | 2.0 | 9.0 | 0.00 | 0.00 | 0.00 | 86 | 1012.0 |
| 20260503031541 | 56 | 97 | 5.0 | 9.0 | 0.00 | 0.00 | 0.00 | 86 | 1012.0 |
| 20260503030040 | 56 | 120 | 2.0 | 9.0 | 0.00 | 0.00 | 0.00 | 86 | 1011.9 |
| 20260503024540 | 56 | 107 | 3.0 | 8.0 | 0.00 | 0.00 | 0.00 | 86 | 1011.7 |
| 20260503023040 | 56 | 97 | 5.0 | 10.0 | 0.00 | 0.00 | 0.00 | 85 | 1011.5 |